COSMOS 2251 DEB, 34998

Orbit data source: Space-Track

COSMOS 2251 DEB, 34998 is space debris in LEO originally from a launch on Wed, 16 Jun 1993 UTC launched from the Plesetsk Missile And Space Complex (PKMTR). The debris from Iridium 33, an American commercial communications satellite, has been tracked extensively since its accidental collision with the defunct Russian satellite Cosmos 2251 in 2009. This event, occurring at high speed in low Earth orbit (LEO), generated thousands of pieces of space debris, significantly increasing the risk of further collisions. The Iridium 33 debris cloud has impacted space traffic management and orbital debris mitigation strategies, making it a subject of ongoing study in space situational awareness.

Loading next visibility...
Identifier
34998, 1993-036AFW
Orbit
LEO
Country
Flag of CISCIS
Related business
Manufacturer
Unknown
Mission
Spacecraft
Bus & Motor
Unknown
Mass
Unknown
Launch date (UTC)
1993-06-16 (33 years ago)
Launch vehicle
Unknown
Launch site
Plesetsk Missile And Space Complex (PKMTR)
Object type
Payload
Rocket body
Debris
Shape & HBR
Unknown shape, 0.1 m
Radar Cross Section
Small (<0.1 m²)

Expand to show TLE details & history
Last TLE update: 1 day ago

TLE from 1 day ago
0 COSMOS 2251 DEB
1 34998U 93036AFW 25352.89597635  .00001723  00000-0  45735-3 0  9993
2 34998  74.0096 148.4189 0021335 293.0415 221.4030 14.49306100875093
Epoch: 2025-12-18T21:30Z
TLE epoch observation values (Epoch: 2025-12-18T21:30:12.356Z)
Latitude
24.68783°
Longitude
-89.40642°
Altitude
741.993 km
Speed
7.48 km/s
True Right ascension
21h 23m 33s
True Declination
24° 33' 26"
Sunlit
Object was in daylight at epoch
Visualization orbit readout
Latitude
Unknown
Longitude
Unknown
Altitude
Unknown
Speed
Unknown
Apparent Right ascension
Unknown
Apparent Declination
Unknown
Sunlit
N/A
Visualization observer readout
Local Sidereal Time
06:49:32
Azimuth
Unknown
Elevation
Unknown
Doppler factor
Unknown
Orbital elements
Apogee altitude
740.683 km
Perigee altitude
710.372 km
Semi-major axis
7,103.664 km
Eccentricity
0.00213
Inclination
74.0096°
RAAN
148.4189°
Arg. of periapsis
293.0415°
True anomaly
221.24164°
Mean anomaly
221.403°
Eccentric anomaly
221.32229°
Mean motion
3.6251 °/min
Orbital period
99.31 mins
BSTAR
0.00045735
Loading maneuver chart data...
Computing Atmospheric mass density...

Documentation

Showing up to 5 results
|